This is the latest recevied weather packets stored in our database for station/object VK3ANZ. If no packets are shown the sender has not sent any weather packets the latest 10 day(s).
| Time | Temp. | Humidity | Pressure | Rain* | Wind** | Luminosity | Snow |
|---|---|---|---|---|---|---|---|
| 1777996518 | 12.22° C | 33% | 1022.8 hPa | 0 mm | - | 0 W/m² | - |
| 1777995969 | 12.22° C | 33% | 1023 hPa | 0 mm | - | 0 W/m² | - |
| 1777995318 | 12.22° C | 33% | 1023 hPa | 0 mm | - | 0 W/m² | - |
| 1777991718 | 12.22° C | 32% | 1023 hPa | 0 mm | - | 0 W/m² | - |
| 1777989926 | 12.22° C | 31% | 1023 hPa | 0 mm | - | 0 W/m² | - |
| 1777980327 | 12.78° C | 29% | 1023.7 hPa | 0 mm | - | 0 W/m² | - |
| 1777979717 | 13.33° C | 32% | 1023.7 hPa | 0 mm | - | 0 W/m² | - |
| 1777977926 | 13.33° C | 31% | 1023.7 hPa | 0 mm | - | 0 W/m² | - |
| 1777977326 | 13.33° C | 30% | 1023.6 hPa | 0 mm | - | 0 W/m² | - |
| 1777973126 | 13.33° C | 29% | 1023.6 hPa | 0 mm | - | 0 W/m² | - |
| 1777971922 | 13.33° C | 29% | 1023.5 hPa | 0 mm | - | 0 W/m² | - |
| 1777970125 | 13.89° C | 26% | 1023.3 hPa | 0 mm | - | 0 W/m² | - |
| 1777968346 | 13.89° C | 27% | 1023 hPa | 0 mm | - | 0 W/m² | - |
| 1777962937 | 15° C | 23% | 1022.2 hPa | 0 mm | - | 20 W/m² | - |
| 1777962345 | 15° C | 24% | 1022.2 hPa | 0 mm | - | 25 W/m² | - |
| 1777960517 | 15.56° C | 23% | 1022.1 hPa | 0 mm | - | 28 W/m² | - |
| 1777958117 | 15.56° C | 21% | 1021.6 hPa | 0 mm | - | 79 W/m² | - |
| 1777956928 | 15.56° C | 23% | 1021.7 hPa | 0 mm | - | 81 W/m² | - |
| 1777955125 | 15° C | 23% | 1021.4 hPa | 0 mm | - | 95 W/m² | - |
| 1777953925 | 15° C | 23% | 1021.3 hPa | 0 mm | - | 77 W/m² | - |
| 1777953316 | 15° C | 23% | 1021.2 hPa | 0 mm | - | 77 W/m² | - |
| 1777952724 | 15° C | 23% | 1021.4 hPa | 0 mm | - | 66 W/m² | - |
| 1777952117 | 15.56° C | 22% | 1021.3 hPa | 0 mm | - | 82 W/m² | - |
| 1777947924 | 14.44° C | 24% | 1021.5 hPa | 0 mm | - | 120 W/m² | - |
| 1777944957 | 15° C | 25% | 1021.7 hPa | 0 mm | - | 98 W/m² | - |
* Rain latest hour (hover to see other rain measurements)
** Current wind speed in m/s (hover to see current wind gust speed)